User: anonymous   Login
Location: Unspecified
(0.0000°N, 0.0000°E)
Time: 06:39:17
(UTC+00:00)
Language:

Nadezhda 6 - Orbit

View from above orbital plane
View from above orbital plane
View from above satellite
View from above satellite

Ground track
Ground track

The orbit data is extracted from the following two-line orbital elements,

1 26384U 00033A   19082.78013205  .00000029  00000-0  13705-4 0  9996
2 26384  97.9276 140.4668 0016009 142.0762 218.1556 14.66486716  1280
Epoch (UTC): 23 March 2019 18:43:23
Eccentricity: 0.0016009
inclination: 97.9276°
perigee height: 661 km
apogee height: 683 km
right ascension of ascending node: 140.4668°
argument of perigee: 142.0762°
revolutions per day: 14.66486716
mean anomaly at epoch: 218.1556°
orbit number at epoch: 128

The dashed part of the orbit path shows where the satellite is in the earth's shadow,  

DLR